Flag for Vanuatu Weather past 2 weeks in Port Vila, Vanuatu

Now
77 °F

Scattered clouds.


Feels Like: 78 °F
Forecast: 80 / 82 °F
Wind: 3 mph from East

Location: Bauerfield Efate


UV Index: 7 (High)

Visibility: N/A


Pressure: 29.95 "Hg

Humidity: 89%

Dew point: 73 °F

Location of Port VilaLocation

Historic Weather in Port Vila

°F

Port Vila temperature yesterday

Maximum temperature yesterday: 86 °F (at 11:00 AM)
Minimum temperature yesterday: 72 °F (at 5:00 AM)
Average temperature yesterday: 79 °F

Past Weeks' High & Low Weather Summary

 TemperatureHumidityPressure
High88 °F (Apr 14, 11:00 AM)100% (Apr 6, 11:00 PM)29.95 "Hg (Apr 6, 11:00 PM)
Low61 °F (Apr 11, 6:00 AM)51% (Apr 10, 1:00 PM)29.77 "Hg (Apr 17, 2:00 PM)
Average76 °F87%29.87 "Hg
* Reported Apr 6 7:00 AM — Apr 21 7:00 AM, Port Vila, Weather by CustomWeather, © 2014

Note: Actual official high and low records may vary slightly from our data, if they occured in-between our weather recording intervals... More about our weather records

Advertising

Historic Weather Conditions — Data for Previous 24 hours

 ConditionsComfort  
Time TempWeatherWind HumidityBarometerVisibility
7:00 AM
Apr 21
77 °FScattered clouds.3 mph89%29.95 "HgN/A
6:00 AM73 °FScattered clouds.3 mph94%29.92 "HgN/A
5:00 AM73 °FPassing clouds.5 mph94%29.92 "HgN/A
4:00 AM77 °FWarm.5 mph89%29.89 "HgN/A
3:00 AM77 °FWarm.3 mph89%29.89 "HgN/A
2:00 AM77 °FWarm.3 mph89%29.92 "HgN/A
1:00 AM73 °FPassing clouds.No wind94%29.92 "HgN/A
12:00 AM73 °FPassing clouds.No wind94%29.92 "HgN/A
11:00 PM
Apr 20
73 °FPassing clouds.No wind94%29.95 "HgN/A
10:00 PM73 °FPassing clouds.No wind100%29.95 "HgN/A
9:00 PM75 °FPassing clouds.No wind94%29.92 "HgN/A
8:00 PM75 °FPassing clouds.No wind100%29.92 "HgN/A
7:00 PM77 °FPassing clouds.No wind94%29.92 "HgN/A
6:00 PM79 °FPassing clouds.5 mph89%29.89 "HgN/A
5:00 PM82 °FPassing clouds.5 mph84%29.86 "HgN/A
4:00 PM86 °FPartly sunny.8 mph75%29.83 "HgN/A
3:00 PM86 °FPartly sunny.9 mph75%29.83 "HgN/A
2:00 PM86 °FScattered clouds.8 mph75%29.86 "HgN/A
1:00 PM86 °FScattered clouds.8 mph70%29.86 "HgN/A
12:00 PM86 °FScattered clouds.7 mph66%29.86 "HgN/A
11:00 AM86 °FScattered clouds.6 mph66%29.89 "HgN/A
10:00 AM84 °FScattered clouds.7 mph84%29.92 "HgN/A
9:00 AM84 °FScattered clouds.7 mph84%29.92 "HgN/A
8:00 AM81 °FScattered clouds.1 mph89%29.89 "HgN/A
Weather by CustomWeather, © 2014

See weather overview